When you browse on this site, cookies collect data to enhance your experience and personalize the content and advertising you see.
Visit our Privacy Policy to learn more. By continuing to use the site, you agree to this use of cookies and data.
EN

Hourly Weather Mondovi

Today, 15 August, Saturday

Time Temperature Precipitation Wind Pressure Humidity
00:00 +22°C° 0.1 mm 1 mps 724 mmHg 85%
01:00 +22°C° 0 mm 1 mps 724 mmHg 86%
02:00 +21°C° 0.2 mm 1 mps 723 mmHg 86%
03:00 +21°C° 0.2 mm 1 mps 723 mmHg 86%
04:00 +21°C° 0.2 mm 1 mps 723 mmHg 87%
05:00 +21°C° 0 mm 1 mps 723 mmHg 86%
06:00 +22°C° 0 mm 1 mps 723 mmHg 85%
07:00 +23°C° 0 mm 1 mps 724 mmHg 84%
08:00 +25°C° 0 mm 1 mps 724 mmHg 76%
09:00 +27°C° 0 mm 1 mps 724 mmHg 67%
10:00 +29°C° 0 mm 1 mps 724 mmHg 59%
11:00 +29°C° 0.3 mm 1 mps 724 mmHg 58%
12:00 +30°C° 0.3 mm 1 mps 724 mmHg 56%
13:00 +31°C° 0.3 mm 1 mps 724 mmHg 55%
14:00 +31°C° 0.5 mm 2 mps 724 mmHg 55%
15:00 +30°C° 0.5 mm 2 mps 724 mmHg 56%
16:00 +30°C° 0.5 mm 2 mps 723 mmHg 56%
17:00 +29°C° 0.2 mm 2 mps 723 mmHg 62%
18:00 +27°C° 0.2 mm 2 mps 723 mmHg 68%
19:00 +26°C° 0.2 mm 1 mps 723 mmHg 75%
20:00 +25°C° 0.1 mm 1 mps 723 mmHg 78%
21:00 +23°C° 0.1 mm 1 mps 723 mmHg 81%
22:00 +22°C° 0.1 mm 1 mps 723 mmHg 85%
23:00 +22°C° 0.1 mm 1 mps 723 mmHg 84%

Tomorrow, 16 August, Sunday

Time Temperature Precipitation Wind Pressure Humidity
00:00 +21°C° 0.1 mm 1 mps 723 mmHg 83%
01:00 +21°C° 0.1 mm 1 mps 723 mmHg 82%
02:00 +21°C° 0 mm 1 mps 723 mmHg 81%
03:00 +20°C° 0 mm 1 mps 723 mmHg 80%
04:00 +20°C° 0 mm 1 mps 722 mmHg 79%
05:00 +21°C° 0 mm 1 mps 723 mmHg 78%
06:00 +21°C° 0 mm 1 mps 723 mmHg 76%
07:00 +22°C° 0 mm 1 mps 723 mmHg 75%
08:00 +24°C° 0 mm 1 mps 723 mmHg 70%
09:00 +26°C° 0 mm 1 mps 723 mmHg 65%
10:00 +28°C° 0 mm 1 mps 724 mmHg 59%
11:00 +29°C° 0.1 mm 1 mps 723 mmHg 58%
12:00 +29°C° 0.1 mm 1 mps 723 mmHg 57%
13:00 +30°C° 0.1 mm 2 mps 723 mmHg 55%
14:00 +30°C° 0.2 mm 2 mps 723 mmHg 57%
15:00 +30°C° 0.2 mm 3 mps 723 mmHg 58%
16:00 +30°C° 0.2 mm 3 mps 723 mmHg 60%
17:00 +28°C° 0.3 mm 3 mps 722 mmHg 67%
18:00 +27°C° 0.3 mm 2 mps 722 mmHg 74%
19:00 +25°C° 0.3 mm 2 mps 722 mmHg 81%
20:00 +24°C° 0.2 mm 2 mps 722 mmHg 83%
21:00 +23°C° 0.2 mm 2 mps 722 mmHg 84%
22:00 +20°C° 0.2 mm 2 mps 722 mmHg 86%
23:00 +21°C° 0.1 mm 1 mps 722 mmHg 85%

Day after tomorrow, 17 August, Monday

Time Temperature Precipitation Wind Pressure Humidity
00:00 +21°C° 0.1 mm 1 mps 722 mmHg 83%
01:00 +20°C° 0.1 mm 1 mps 722 mmHg 82%
02:00 +20°C° 0.1 mm 1 mps 722 mmHg 82%
03:00 +20°C° 0.1 mm 1 mps 722 mmHg 82%
04:00 +20°C° 0.1 mm 1 mps 722 mmHg 82%
05:00 +20°C° 0 mm 1 mps 722 mmHg 81%
06:00 +21°C° 0 mm 1 mps 722 mmHg 81%
07:00 +21°C° 0 mm 1 mps 722 mmHg 80%
08:00 +23°C° 0 mm 1 mps 722 mmHg 75%
09:00 +25°C° 0 mm 1 mps 722 mmHg 69%
10:00 +27°C° 0 mm 1 mps 723 mmHg 63%
11:00 +28°C° 0.1 mm 1 mps 723 mmHg 59%
12:00 +29°C° 0.1 mm 2 mps 722 mmHg 55%
13:00 +30°C° 0.1 mm 2 mps 722 mmHg 52%
14:00 +30°C° 0.1 mm 3 mps 722 mmHg 52%
15:00 +30°C° 0.1 mm 3 mps 722 mmHg 53%
16:00 +30°C° 0.1 mm 3 mps 722 mmHg 54%
17:00 +28°C° 0.2 mm 3 mps 722 mmHg 63%
18:00 +26°C° 0.2 mm 2 mps 721 mmHg 73%
19:00 +24°C° 0.2 mm 1 mps 721 mmHg 83%
20:00 +23°C° 0.1 mm 1 mps 722 mmHg 85%
21:00 +22°C° 0.1 mm 1 mps 722 mmHg 88%
22:00 +21°C° 0.1 mm 1 mps 722 mmHg 90%
23:00 +21°C° 0 mm 1 mps 722 mmHg 89%

18 August, Tuesday

Time Temperature Precipitation Wind Pressure Humidity
00:00 +21°C° 0 mm 1 mps 722 mmHg 88%
01:00 +20°C° 0 mm 1 mps 722 mmHg 87%
02:00 +20°C° 0 mm 1 mps 722 mmHg 86%
03:00 +20°C° 0 mm 1 mps 722 mmHg 85%
04:00 +20°C° 0 mm 1 mps 722 mmHg 84%
05:00 +20°C° 0 mm 1 mps 722 mmHg 82%
06:00 +21°C° 0 mm 1 mps 722 mmHg 81%
07:00 +22°C° 0 mm 1 mps 722 mmHg 80%
08:00 +23°C° 0.2 mm 1 mps 722 mmHg 74%
09:00 +25°C° 0.2 mm 1 mps 722 mmHg 69%
10:00 +27°C° 0.2 mm 1 mps 723 mmHg 64%
11:00 +28°C° 0.3 mm 1 mps 722 mmHg 62%
12:00 +28°C° 0.3 mm 2 mps 722 mmHg 60%
13:00 +29°C° 0.3 mm 2 mps 722 mmHg 58%
14:00 +29°C° 0.8 mm 2 mps 721 mmHg 59%
15:00 +29°C° 0.8 mm 3 mps 721 mmHg 61%
16:00 +28°C° 0.8 mm 3 mps 721 mmHg 62%
17:00 +27°C° 0.5 mm 2 mps 721 mmHg 69%
18:00 +25°C° 0.5 mm 2 mps 720 mmHg 76%
19:00 +24°C° 0.5 mm 2 mps 720 mmHg 82%
20:00 +23°C° 0.7 mm 2 mps 720 mmHg 84%
21:00 +20°C° 0.7 mm 2 mps 720 mmHg 86%
22:00 +19°C° 0.7 mm 2 mps 720 mmHg 87%
23:00 +19°C° 0.6 mm 2 mps 720 mmHg 86%

19 August, Wednesday

Time Temperature Precipitation Wind Pressure Humidity
00:00 +20°C° 0.6 mm 1 mps 720 mmHg 86%
01:00 +19°C° 0.6 mm 1 mps 720 mmHg 85%
02:00 +19°C° 0.1 mm 1 mps 720 mmHg 85%
03:00 +19°C° 0.1 mm 1 mps 719 mmHg 85%
04:00 +18°C° 0.1 mm 1 mps 719 mmHg 84%
05:00 +19°C° 0 mm 1 mps 719 mmHg 84%
06:00 +20°C° 0 mm 1 mps 720 mmHg 83%
07:00 +20°C° 0 mm 1 mps 720 mmHg 82%
08:00 +22°C° 0 mm 1 mps 720 mmHg 72%
09:00 +25°C° 0 mm 1 mps 720 mmHg 63%
10:00 +27°C° 0 mm 1 mps 721 mmHg 53%
11:00 +28°C° 0 mm 1 mps 721 mmHg 51%
12:00 +29°C° 0 mm 2 mps 721 mmHg 48%
13:00 +29°C° 0 mm 2 mps 721 mmHg 45%
14:00 +29°C° 0.1 mm 2 mps 721 mmHg 47%
15:00 +29°C° 0.1 mm 2 mps 721 mmHg 49%
16:00 +29°C° 0.1 mm 2 mps 721 mmHg 51%
17:00 +28°C° 0 mm 1 mps 721 mmHg 60%
18:00 +26°C° 0 mm 1 mps 720 mmHg 69%
19:00 +24°C° 0 mm 1 mps 720 mmHg 78%
20:00 +23°C° 0 mm 1 mps 721 mmHg 80%
21:00 +22°C° 0 mm 1 mps 721 mmHg 83%
22:00 +21°C° 0 mm 1 mps 721 mmHg 85%
23:00 +21°C° 0 mm 1 mps 721 mmHg 85%

20 August, Thursday

Time Temperature Precipitation Wind Pressure Humidity
00:00 +21°C° 0 mm 1 mps 721 mmHg 84%
01:00 +20°C° 0 mm 1 mps 722 mmHg 84%
02:00 +20°C° 0 mm 1 mps 722 mmHg 83%
03:00 +20°C° 0 mm 1 mps 722 mmHg 83%
04:00 +20°C° 0 mm 1 mps 722 mmHg 83%
05:00 +20°C° 0 mm 1 mps 722 mmHg 81%
06:00 +21°C° 0 mm 1 mps 722 mmHg 79%
07:00 +20°C° 0 mm 0 mps 723 mmHg 77%
08:00 +24°C° 0 mm 1 mps 723 mmHg 70%
09:00 +26°C° 0 mm 1 mps 724 mmHg 64%
10:00 +28°C° 0 mm 1 mps 724 mmHg 58%
11:00 +29°C° 0 mm 1 mps 724 mmHg 55%
12:00 +30°C° 0 mm 1 mps 725 mmHg 52%
13:00 +31°C° 0 mm 2 mps 725 mmHg 49%
14:00 +31°C° 0 mm 2 mps 725 mmHg 50%
15:00 +31°C° 0 mm 2 mps 724 mmHg 51%
16:00 +31°C° 0 mm 2 mps 724 mmHg 52%
17:00 +29°C° 0 mm 2 mps 724 mmHg 59%
18:00 +28°C° 0 mm 2 mps 724 mmHg 66%
19:00 +26°C° 0 mm 1 mps 724 mmHg 73%
20:00 +25°C° 0 mm 1 mps 724 mmHg 76%
21:00 +24°C° 0 mm 1 mps 725 mmHg 78%
22:00 +23°C° 0 mm 1 mps 725 mmHg 81%
23:00 +22°C° 0 mm 1 mps 725 mmHg 82%
Show more